Wind_Speed
9 8 8 10 11 13 15 17 18 19 19 20 20 19 18 17 17 17 17 17 17 18 19 20 21 22 22 22 23 25 26 26 26 26 27 27 27 26 27 27 27 27 27 27
8 8 9 10 11 14 16 17 18 19 20 20 21 20 19 18 18 18 18 18 18 19 20 21 21 22 22 22 23 24 24 25 26 26 26 25 25 26 26 26 27 27 27 27
8 8 8 10 12 14 17 19 19 19 20 20 20 20 19 19 20 19 19 19 20 20 20 21 22 22 22 23 23 23 23 24 24 25 26 25 25 24 25 25 25 25 25 25
9 8 9 10 11 14 17 19 20 19 20 20 20 20 20 20 20 20 20 20 20 21 21 21 21 21 21 21 21 22 23 24 23 24 24 24 24 25 24 24 24 25 25 24
9 8 9 10 11 15 18 19 19 19 20 20 20 21 21 20 19 19 19 19 19 20 19 18 18 18 19 20 20 20 21 21 22 22 22 22 23 24 23 23 23 23 23 23
10 9 11 11 12 15 18 19 19 20 20 20 20 21 19 19 19 19 19 18 18 17 17 17 16 16 16 17 17 18 18 19 19 20 20 20 20 20 21 21 21 20 20 20
10 12 12 12 15 17 19 20 21 20 20 20 20 19 19 19 18 18 18 18 17 16 15 16 15 15 14 14 15 15 16 16 16 17 17 17 18 19 19 19 19 19 19 19
12 13 13 14 16 17 19 19 20 20 20 19 19 19 18 18 17 17 17 17 15 15 14 14 14 14 14 14 14 14 14 14 15 15 15 16 17 17 17 17 18 18 17 17
12 12 12 13 15 16 18 19 20 19 18 18 18 17 17 16 16 15 14 13 13 12 12 12 12 12 12 13 13 13 13 13 14 14 14 14 15 15 15 15 15 15 16 16
12 11 11 13 14 16 17 19 19 18 17 17 17 16 15 15 14 12 11 11 10 10 10 9 9 10 10 10 11 12 12 12 12 12 12 12 12 13 13 13 13 14 14 14
10 10 10 11 13 15 16 18 18 17 16 16 16 15 14 13 12 10 9 9 9 8 7 7 8 8 8 9 10 10 10 10 11 11 11 11 11 11 11 11 11 11 11 12
7 8 9 11 13 14 16 17 17 16 16 15 14 13 13 11 10 8 8 8 7 8 7 7 7 8 7 7 8 8 9 9 9 9 9 9 9 9 9 9 9 10 10 11
7 7 8 10 12 14 15 16 16 15 15 14 14 13 12 11 9 8 7 6 7 7 6 7 7 7 7 7 6 6 6 7 7 7 8 8 8 8 8 8 9 9 9 10
6 6 7 9 11 13 14 15 15 15 14 14 13 13 11 10 9 8 7 7 6 6 6 6 6 5 5 4 4 4 4 5 5 6 6 7 7 7 7 8 8 7 7 8
5 4 6 8 10 12 13 14 14 14 14 13 13 13 11 10 9 8 8 7 6 6 6 5 5 4 3 2 2 3 3 3 3 4 4 5 5 5 6 6 6 6 6 6
4 3 5 7 9 11 13 14 14 14 14 14 14 13 12 11 10 9 9 8 7 6 6 6 5 4 3 2 1 1 1 1 2 1 1 1 2 3 3 3 4 4 4 4
5 2 3 6 8 10 12 13 14 14 14 15 14 14 13 12 11 11 10 8 7 6 6 6 6 5 4 3 2 2 1 1 2 2 1 1 1 1 1 2 3 3 3 3
5 1 2 5 7 9 11 13 14 14 15 15 15 14 14 13 13 12 11 10 9 8 7 7 7 6 5 5 5 4 4 4 4 3 3 3 3 2 3 3 3 3 3 3
6 3 1 4 7 9 11 12 13 13 14 15 15 15 15 14 14 14 13 12 11 11 10 10 9 9 8 8 8 7 7 6 6 5 5 5 5 5 5 5 5 5 5 5
7 4 1 3 6 8 10 11 12 13 14 14 15 15 15 16 16 16 15 15 14 13 13 13 12 12 11 11 11 10 9 9 9 8 7 7 7 7 6 6 6 6 6 7
9 6 3 2 5 7 9 11 11 13 14 14 15 15 16 16 17 17 17 16 16 16 15 15 15 14 14 13 13 13 13 13 12 11 10 10 9 9 9 8 8 8 8 8
10 7 4 3 4 6 8 10 11 12 13 14 15 15 16 16 17 17 17 18 17 17 17 17 16 15 15 15 15 15 16 15 14 13 13 12 11 11 11 10 10 10 10 9
12 9 6 4 4 5 7 9 10 11 12 13 14 15 16 16 17 17 18 18 19 19 18 18 18 17 17 16 16 17 17 17 16 15 14 14 13 13 13 12 12 11 11 11
13 11 8 5 4 4 6 7 9 10 11 13 13 14 15 16 17 17 18 18 19 19 19 19 19 18 18 17 17 18 18 17 17 16 16 15 15 14 14 13 13 13 12 12
15 12 9 7 5 4 4 6 8 9 10 11 13 13 14 15 16 16 17 18 18 18 18 18 18 18 18 17 17 18 18 18 17 17 17 16 15 15 15 14 14 13 13 12
17 14 11 9 6 4 4 5 6 8 9 10 11 12 13 14 14 15 16 16 16 16 16 17 17 17 17 16 17 18 18 17 16 16 16 15 15 15 14 14 13 13 13 12
19 16 13 10 7 5 4 4 4 6 7 9 10 11 12 12 13 14 14 14 14 15 15 15 15 15 15 15 16 16 16 16 15 15 15 14 14 13 13 13 12 12 12 11
Wind_Direction
270 282 290 295 292 292 297 301 304 308 309 307 307 307 305 301 297 292 286 282 273 269 267 264 262 262 260 257 257 256 256 257 257 258 257 259 261 262 262 263 265 267 268 269
269 282 292 294 297 302 305 303 304 306 309 307 306 306 303 300 299 295 289 283 277 272 270 267 264 262 263 262 261 260 258 258 259 260 259 259 261 262 261 260 262 265 268 269
269 268 279 290 292 298 303 305 306 309 309 306 307 306 304 300 298 295 291 285 279 276 273 270 266 266 265 264 262 261 261 261 259 260 260 261 262 262 261 262 264 267 269 271
274 275 286 286 294 300 305 307 308 310 310 309 308 306 303 300 297 295 292 287 283 279 279 275 269 267 265 265 264 260 259 260 260 260 261 261 262 263 263 263 266 268 270 272
276 280 297 289 297 305 308 312 311 311 311 311 308 306 304 301 298 294 293 288 284 283 280 275 270 265 264 264 263 262 260 259 259 260 261 261 262 262 260 262 265 267 269 272
284 288 297 297 306 310 312 313 314 313 312 311 309 307 306 302 299 296 293 291 287 284 279 274 270 266 264 263 262 263 262 260 258 257 257 259 259 257 257 260 264 267 268 270
281 289 292 300 309 311 313 314 316 315 313 312 311 309 308 304 300 298 294 293 288 282 277 273 270 267 266 263 264 265 265 262 261 260 258 259 260 259 261 265 267 266 265 268
275 284 292 299 307 312 314 316 318 316 315 314 313 312 310 307 302 300 297 293 289 282 275 272 267 266 267 268 266 265 264 262 261 260 261 264 263 261 264 266 267 265 266 268
279 289 298 306 311 316 319 321 323 321 319 319 318 316 313 310 307 304 302 296 293 288 282 276 271 269 268 266 267 266 263 261 260 260 260 261 260 262 266 268 269 270 270 270
280 287 299 309 315 320 323 326 329 329 327 325 323 320 317 314 311 307 305 303 301 293 289 283 278 275 271 267 266 264 260 260 260 260 259 260 263 264 265 267 269 270 271 270
273 287 301 311 319 325 330 333 334 336 336 333 329 326 323 322 315 310 310 312 309 303 295 291 288 283 280 276 271 269 267 264 262 262 262 261 261 261 264 267 271 272 272 272
274 290 306 318 326 332 335 338 340 341 341 341 340 338 336 333 331 329 325 319 313 307 304 298 294 292 287 280 275 270 266 264 262 261 261 262 263 265 267 268 270 272 273 276
276 296 312 325 333 338 340 344 347 347 347 348 348 348 346 343 341 341 337 330 324 320 312 305 302 298 292 282 277 274 268 263 261 261 261 263 266 267 267 269 271 273 274 276
265 293 316 333 341 344 346 349 352 354 356 357 358 360 358 358 356 356 352 346 338 332 328 320 314 311 304 289 278 273 266 260 260 261 260 261 263 265 268 272 274 274 275 280
250 288 322 340 348 351 353 356 360 2 3 4 7 7 7 5 6 5 359 351 347 346 347 343 340 335 325 303 286 271 267 267 269 270 268 264 263 265 270 274 276 277 280 286
233 282 329 348 355 357 360 4 7 9 11 13 14 13 14 14 12 9 6 6 6 8 10 9 8 7 4 352 329 292 280 294 307 304 289 270 262 268 278 285 289 292 295 299
216 261 341 360 4 5 8 11 14 17 19 20 21 22 23 24 22 21 23 26 28 27 28 29 31 34 39 44 47 59 64 59 51 51 50 37 12 344 329 330 332 333 329 323
199 217 5 11 12 13 16 18 20 23 24 26 28 30 32 33 31 31 32 35 39 41 42 44 47 48 52 58 64 70 70 68 65 61 60 61 61 57 48 38 29 24 24 23
193 188 40 25 22 22 23 24 26 27 28 31 34 36 37 39 38 39 41 45 49 53 55 57 59 62 66 68 69 69 69 68 69 69 70 72 73 68 58 52 50 50 46 43
190 182 125 46 34 31 31 32 33 34 35 37 40 41 43 44 45 46 49 52 56 61 64 65 66 68 69 70 69 68 68 69 71 71 71 73 72 68 64 62 62 60 58 55
189 183 159 80 49 40 38 38 40 41 41 43 45 47 49 50 51 52 54 56 60 63 66 67 68 68 68 69 69 68 70 71 72 73 74 74 73 70 69 68 67 67 64 60
188 183 168 121 72 52 46 45 46 47 47 47 48 50 52 53 54 55 57 59 61 64 66 68 69 69 69 70 71 73 73 72 71 72 72 73 72 72 72 72 72 69 65 63
187 182 172 144 100 70 57 52 52 52 51 51 51 52 54 55 56 57 59 61 63 65 67 69 70 71 71 70 70 72 72 71 70 71 72 73 74 74 74 73 71 69 67 65
186 183 176 160 129 91 69 60 56 56 55 54 54 54 55 56 57 59 60 63 65 66 68 69 70 71 71 71 70 72 73 72 72 72 72 73 74 74 74 72 70 69 67 66
187 185 180 170 151 119 88 70 63 60 58 57 56 56 57 57 59 60 62 64 65 66 67 67 68 69 70 70 70 71 72 73 72 72 71 71 71 71 71 70 69 67 66 65
189 188 185 178 167 147 116 87 71 64 61 59 58 57 57 58 59 59 60 61 63 64 64 65 67 68 69 69 69 70 70 70 70 69 70 69 69 68 68 66 65 63 61 60
192 190 187 183 176 164 144 113 85 70 63 59 58 57 56 56 57 57 58 58 59 60 61 62 63 64 65 65 65 66 66 66 66 65 65 65 64 63 62 61 59 57 55 53
Height
5754 5754 5754 5754 5753 5752 5750 5748 5745 5743 5740 5737 5735 5733 5731 5729 5728 5727 5727 5726 5725 5725 5725 5726 5726 5727 5728 5729 5730 5732 5734 5735 5736 5738 5740 5741 5743 5744 5746 5747 5749 5750 5750 5751
5752 5752 5752 5751 5750 5749 5747 5745 5742 5740 5738 5735 5732 5730 5728 5727 5725 5724 5723 5722 5722 5721 5721 5721 5722 5722 5723 5724 5725 5726 5727 5729 5730 5731 5733 5735 5736 5738 5739 5741 5742 5743 5744 5744
5750 5749 5749 5749 5748 5747 5745 5741 5739 5736 5735 5731 5729 5727 5725 5723 5722 5720 5719 5718 5717 5716 5716 5716 5716 5717 5717 5718 5719 5720 5721 5722 5724 5725 5727 5728 5730 5731 5733 5734 5735 5736 5737 5737
5747 5748 5746 5747 5745 5744 5741 5738 5735 5733 5730 5728 5725 5723 5721 5719 5717 5716 5714 5713 5712 5711 5711 5710 5710 5711 5711 5712 5713 5714 5716 5717 5718 5719 5721 5722 5723 5725 5726 5728 5729 5730 5730 5731
5745 5744 5743 5742 5741 5740 5738 5735 5732 5730 5727 5724 5722 5719 5717 5714 5713 5711 5709 5708 5707 5706 5705 5705 5705 5706 5706 5707 5708 5709 5710 5711 5712 5713 5715 5716 5717 5719 5720 5722 5723 5724 5724 5725
5743 5741 5740 5739 5738 5737 5735 5732 5729 5726 5723 5721 5718 5715 5714 5710 5708 5706 5705 5703 5702 5701 5701 5700 5701 5701 5702 5702 5703 5704 5705 5706 5707 5708 5709 5711 5712 5713 5715 5716 5717 5718 5719 5719
5741 5739 5737 5737 5736 5735 5733 5731 5726 5723 5720 5717 5714 5712 5709 5706 5704 5702 5700 5699 5697 5697 5696 5696 5696 5697 5697 5698 5699 5699 5700 5701 5702 5703 5705 5706 5707 5709 5710 5711 5712 5713 5713 5714
5738 5737 5737 5735 5734 5732 5730 5726 5722 5719 5716 5713 5710 5707 5705 5702 5700 5698 5696 5695 5693 5693 5692 5692 5692 5693 5693 5694 5695 5696 5697 5697 5698 5699 5700 5701 5703 5704 5705 5706 5707 5707 5708 5709
5736 5736 5734 5733 5731 5729 5726 5723 5719 5716 5713 5710 5707 5704 5701 5699 5696 5694 5693 5691 5690 5690 5689 5689 5689 5689 5690 5690 5691 5692 5692 5693 5694 5695 5696 5697 5698 5699 5700 5701 5702 5703 5703 5704
5734 5733 5733 5731 5729 5727 5724 5720 5717 5713 5710 5707 5704 5701 5698 5696 5694 5692 5690 5689 5688 5687 5686 5686 5686 5686 5686 5687 5687 5688 5689 5690 5691 5691 5692 5693 5695 5696 5697 5697 5698 5699 5699 5700
5733 5733 5731 5730 5728 5725 5722 5719 5715 5711 5708 5705 5702 5699 5696 5694 5692 5690 5688 5687 5686 5685 5684 5684 5684 5684 5684 5684 5684 5685 5686 5686 5687 5688 5689 5690 5691 5692 5693 5694 5694 5695 5696 5696
5732 5732 5731 5729 5727 5724 5721 5717 5714 5710 5707 5704 5701 5698 5695 5693 5690 5689 5687 5686 5685 5684 5683 5682 5682 5682 5682 5682 5682 5682 5683 5684 5684 5686 5687 5688 5689 5689 5690 5691 5691 5692 5693 5693
5731 5731 5730 5728 5726 5723 5720 5717 5713 5710 5707 5703 5700 5697 5694 5692 5690 5688 5687 5685 5684 5683 5682 5681 5680 5680 5680 5680 5680 5680 5681 5682 5682 5683 5684 5685 5686 5687 5688 5688 5689 5689 5690 5690
5731 5731 5730 5728 5726 5723 5720 5717 5713 5710 5707 5703 5700 5697 5695 5692 5690 5689 5687 5686 5684 5683 5682 5681 5680 5679 5679 5679 5679 5679 5680 5680 5681 5682 5683 5684 5684 5685 5686 5686 5687 5687 5688 5688
5730 5731 5730 5728 5726 5723 5721 5717 5714 5711 5707 5704 5701 5698 5696 5693 5691 5689 5688 5686 5684 5683 5682 5680 5679 5679 5678 5678 5678 5679 5680 5680 5680 5681 5681 5682 5683 5683 5684 5685 5685 5686 5686 5686
5730 5731 5730 5728 5727 5724 5721 5718 5715 5712 5709 5706 5703 5700 5697 5695 5692 5690 5688 5686 5685 5683 5682 5681 5680 5679 5678 5678 5679 5679 5679 5680 5680 5680 5681 5681 5682 5682 5683 5684 5684 5684 5685 5685
5731 5731 5730 5729 5727 5725 5723 5720 5717 5714 5711 5708 5705 5702 5699 5696 5694 5692 5689 5688 5686 5684 5683 5682 5681 5680 5679 5679 5679 5679 5680 5680 5680 5681 5681 5681 5682 5682 5683 5683 5683 5683 5684 5684
5731 5731 5731 5730 5729 5727 5724 5722 5719 5716 5713 5710 5707 5704 5701 5699 5696 5694 5691 5689 5688 5686 5685 5683 5682 5681 5681 5681 5681 5681 5681 5681 5681 5681 5682 5682 5682 5683 5683 5683 5684 5684 5684 5684
5731 5732 5732 5731 5730 5728 5726 5724 5721 5718 5716 5713 5710 5707 5705 5702 5699 5697 5694 5692 5690 5689 5687 5686 5685 5684 5684 5684 5683 5683 5683 5683 5683 5683 5683 5683 5684 5684 5684 5684 5684 5684 5685 5685
5731 5732 5732 5732 5731 5730 5728 5726 5724 5721 5719 5716 5714 5711 5708 5706 5703 5700 5698 5696 5694 5693 5691 5690 5689 5688 5688 5687 5686 5686 5686 5685 5685 5685 5685 5685 5685 5686 5686 5686 5686 5686 5686 5686
5731 5732 5733 5733 5732 5731 5730 5728 5726 5724 5722 5720 5718 5715 5713 5710 5708 5705 5703 5701 5699 5697 5696 5694 5693 5693 5692 5691 5690 5690 5689 5688 5688 5688 5688 5688 5688 5688 5688 5688 5688 5688 5688 5688
5731 5732 5733 5734 5734 5733 5732 5731 5729 5727 5726 5724 5721 5719 5717 5715 5712 5710 5708 5706 5704 5702 5700 5699 5698 5697 5696 5696 5695 5694 5693 5692 5692 5692 5692 5691 5691 5691 5691 5691 5691 5691 5691 5691
5731 5732 5734 5735 5735 5735 5734 5733 5732 5730 5729 5727 5725 5723 5721 5719 5717 5715 5713 5711 5709 5707 5706 5705 5703 5702 5701 5700 5700 5699 5697 5697 5697 5696 5696 5695 5695 5695 5695 5695 5695 5694 5694 5694
5730 5732 5734 5735 5736 5736 5736 5735 5734 5733 5732 5730 5729 5727 5725 5723 5722 5720 5718 5716 5714 5713 5712 5710 5709 5708 5706 5706 5705 5704 5703 5702 5702 5701 5700 5700 5700 5699 5699 5698 5698 5698 5697 5697
5730 5732 5734 5735 5736 5737 5737 5737 5736 5735 5734 5733 5732 5730 5729 5728 5726 5725 5723 5721 5720 5718 5717 5716 5714 5713 5712 5711 5711 5709 5708 5707 5707 5706 5705 5705 5704 5703 5703 5702 5702 5701 5701 5700
5729 5731 5734 5735 5737 5738 5738 5738 5738 5738 5737 5736 5735 5734 5733 5731 5730 5729 5727 5726 5724 5723 5722 5721 5720 5718 5717 5717 5716 5714 5713 5712 5712 5711 5710 5709 5709 5708 5707 5706 5706 5705 5704 5703
5727 5730 5733 5735 5737 5738 5739 5739 5739 5739 5739 5738 5738 5737 5736 5734 5733 5732 5731 5730 5729 5728 5727 5725 5724 5723 5722 5721 5720 5719 5718 5717 5716 5715 5714 5713 5713 5712 5711 5710 5709 5708 5707 5706